铱星星座 138星 (IRIDIUM 138)

导读

IRIDIUM 138(铱星138)是美国于2017年12月23日发射的新一代低轨通信卫星,隶属于铱星系统星座。铱星系统是全球首个实现无缝覆盖的卫星移动通信网络,IRIDIUM 138承担着替代老旧卫星、提升全球通信稳定性的任务。该卫星运行于近地轨道,可为全球任意地点提供语音、数据通信服务,支持海事、航空以及偏远区域的通信保障,是美国低轨卫星通信布局的重要组成部分,延续了铱星系统全球无盲区通信的服务能力。

Basic Information
目录编号:
43071
目录名称:
IRIDIUM 138
国际标识:
2017-083B
轨道中心:
EARTH
卫星名称:
铱星星座 138星
卫星全名:
铱星星座 138星 (IRIDIUM 138)
卫星状态:
在轨 (已飞行3188 天)
发射日期:
2017-12-23 UTC
国别 :
美国 (US)
星等 :
--
This satellite is enrolled in the Space Conjunction Data Service (SCDS) and the current flight risk assessment level is: No High Risk
Orbit Information
数据来源 国际轨道数据 AOE轨道数据
星历时间 2026-09-15T08:55:51+0800
21小时前
查看轨道信息
2026-09-14T23:00:00+0800
1天前
查看轨道信息
半长轴 7155.806km 7155.804km
偏心率 0.0002272 0.0002656
轨道倾角 86.393° 86.392°
近地点辐角 92.341° 95.046°
升交点赤经 284.161° 284.334°
平近点角 267.805° 289.999°
近地点 776.043km 775.766km
远地点 779.295km 779.568km
周期 100.403分钟 100.403分钟
每日圈数 14.342172 14.342179
Detailed Information
平衡模式:
三轴稳定
覆盖范围:
全球
运营商:
铱星通信公司
运营商所在国:
美国
制造商(研发单位):
阿莱尼亚宇航公司
制造商所在国:
意大利
使用方式:
暂无
Satellite Introduction
铱星(Iridium)是由共66个运作中的通信卫星组成的卫星通信系统。这个系统原本规划77个通信卫星,所以用原子序数为77的铱元素来命名。铱卫星允许人们使用手持型电子设备进行全球性的语音及数据通讯。该卫星仍在工作。
2D Orbit Map
3D Orbit Map
Orbit Altitude Analysis Chart
Orbit Inclination Analysis Chart
Orbit Comprehensive Analysis Chart
View Comprehensive Chart
Conjunction Data List
Event ID Objects TCA Miss Dist (km) Collision Risk Probability Collision Risk Index (CRI) Action
CDM_260917-200100-741104-307123
2026-09-17T
20:01:14+0000
1.453 km
极远距离
7.490613E-6 低风险 0.52
Miss Distance Evolution Trend with All Objects Subscribe to Flight Safety Assessment
Collision Probability Evolution Trend with All Objects Subscribe to Flight Safety Assessment